Regional Weather Roundup
Issued by NWS Cleveland, OH

Home | Current Version | Previous Version | Graphics & Text | Print | Product List | Glossary On
Versions: 1 2 3 4 5 6 7 8 9 10 11 12 13 14 15 16 17 18 19 20 21 22 23 24 25 26 27 28 29 30 31 32 33 34 35 36 37 38 39 40 41 42 43 44 45 46 47 48 49 50
000
ASUS41 KCLE 221902
RWRCLE
OHIO REGIONAL WEATHER ROUNDUP
NATIONAL WEATHER SERVICE CLEVELAND, OH
300 PM EDT FRI MAY 22 2015

NOTE: "FAIR" INDICATES FEW OR NO CLOUDS BELOW 12,000 FEET WITH NO
SIGNIFICANT WEATHER AND/OR OBSTRUCTIONS TO VISIBILITY.

OHZ001>008-015>018-024>027-034-035-043-044-222000-
   NORTHWEST OHIO

CITY           SKY/WX    TMP DP  RH WIND       PRES   REMARKS
DEFIANCE       SUNNY     70  34  26 MISG      30.21S
FINDLAY        SUNNY     70  32  24 N8        30.19S
TOLEDO EXPRESS SUNNY     67  28  23 N8G18     30.21R
TOLEDO EXEC    SUNNY     67  27  22 VRB7G17   30.21S
LIMA           SUNNY     68  38  33 CALM      30.20S
$$

OHZ009>014-019>023-028>033-038-089-222000-
   NORTHEAST OHIO

CITY           SKY/WX    TMP DP  RH WIND       PRES   REMARKS
CLE-HOPKINS    SUNNY     60  30  32 NW13G21   30.24R
CLE-LAKEFRONT  SUNNY     58  39  49 W10       30.22R
CUY CO. ARPT   SUNNY     59  34  38 NW16      30.22R
LORAIN-ELYRIA  SUNNY     61  30  31 N14G20    30.22R
ASHTABULA      SUNNY     57  29  34 W13G31    30.21R
AKRON-CANTON   MOSUNNY   66  31  27 NW10G23   30.19R
WOOSTER        SUNNY     67  29  24 NW12G25   30.20S
MANSFIELD      SUNNY     66  32  28 VRB7G16   30.21R
YOUNGSTOWN     MOSUNNY   62  28  27 NW14G26   30.17R
$$

OHZ042-051>053-060>062-070>072-077>081-222000-
  SOUTHWEST OHIO

CITY           SKY/WX    TMP DP  RH WIND       PRES   REMARKS
CINC-COVINGTON MOSUNNY   71  48  43 SW9       30.22S
CINC-LUNKEN    MOSUNNY   72  46  39 SW10G20   30.21S
HAMILTON       MOSUNNY   75  49  39 SW9G16    30.20S
DAYTON         MOSUNNY   74  48  39 W16G22    30.19S
WRIGHT-PAT AFB MOSUNNY   73  47  39 W10       30.18S
DAYTON GENERAL PTSUNNY   72  46  39 SW12G21   30.19S
WILMINGTON     PTSUNNY   71  42  35 W14G24    30.20S
$$

OHZ036-037-039>041-045>050-054>059-063>069-073>076-082>088-222000-
  CENTRAL AND SOUTHEAST OHIO

CITY           SKY/WX    TMP DP  RH WIND       PRES   REMARKS
COLUMBUS       PTSUNNY   70  48  45 W10G17    30.17S
OSU AIRPORT    PTSUNNY   69  45  41 W12G22    30.17F
BOLTON FIELD   PTSUNNY   72  52  49 W8        30.18F
RICKENBACK AFB NOT AVBL
NEWARK         MOSUNNY   71  49  45 NW6       30.17F
MARION         MOSUNNY   70  38  31 N7        30.20S
LANCASTER      MOSUNNY   74  43  32 W15G21    30.18S
ZANESVILLE     MOSUNNY   70  47  43 W12       30.18F
NEW PHILLY     MOSUNNY   68  38  33 NW13G20   30.19R
$$


USA.gov is the U.S. government's official web portal to all federal, state and local government web resources and services.